Weather History for Kenosha, WI

Change the Weather History Date:

Wednesday, December 5, 2012

  Actual Average Record
Temperature  
Mean Temperature 30 °F -  
Max Temperature 36 °F 38 °F 66 °F (2001)
Min Temperature 24 °F 23 °F -2 °F (2005)
Degree Days  
Heating Degree Days 35    
Moisture  
Dew Point 21 °F    
Average Humidity 67    
Maximum Humidity 85    
Minimum Humidity 54    
Precipitation  
Precipitation 0.00 in - - ()
Sea Level Pressure  
Sea Level Pressure 30.38 in    
Wind  
Wind Speed 7 mph (NE)    
Max Wind Speed 10 mph    
Max Gust Speed -    
Visibility 10 miles    
Events      
Averages and records for this station are not official NWS values.
T = Trace of Precipitation, MM = Missing Value Source: NWS Daily Summary

Daily Weather History Graph

Daily Weather History Graph

Search for Another Location

Airport:

Trip Planner

Search our weather history database for the weather conditions in past years. The results will help you decide how hot, cold, wet, or windy it might be!

Date:

Astronomy

Dec. 05, 2012 Rise Set
Actual Time 7:06 AM CST 4:18 PM CST
Civil Twilight 6:34 AM CST 4:50 PM CST
Nautical Twilight 5:59 AM CST 5:25 PM CST
Astronomical Twilight 5:25 AM CST 5:59 PM CST
Moon 11:14 PM CST (12/5) 11:24 AM CST (12/5)
Length of Visible Light 10h 15m
Length of Day
9h 11m
Waning Gibbous, 59% of the Moon is Illuminated
Dec 5
Waning Gibbous
Dec 6
Last Quarter
Dec 13
New
Dec 19
First Quarter
Dec 28
Full

Hourly Weather History & Observations

Time (CST) Temp. Windchill Dew Point Humidity Pressure Visibility Wind Dir Wind Speed Gust Speed Precip Events Conditions
12:53 AM 30.0 °F 22.4 °F 15.1 °F 54% 30.34 in 10.0 mi NW 8.1 mph - N/A   Clear
1:53 AM 28.9 °F 20.4 °F 15.1 °F 56% 30.36 in 10.0 mi NNW 9.2 mph - N/A   Clear
2:53 AM 27.0 °F 19.5 °F 15.1 °F 61% 30.40 in 10.0 mi NNW 6.9 mph - N/A   Clear
3:53 AM 26.1 °F 20.5 °F 14.0 °F 60% 30.40 in 10.0 mi North 4.6 mph - N/A   Clear
4:53 AM 25.0 °F 17.1 °F 15.1 °F 66% 30.41 in 10.0 mi NNW 6.9 mph - N/A   Clear
5:53 AM 24.1 °F 18.2 °F 14.0 °F 65% 30.43 in 10.0 mi NNW 4.6 mph - N/A   Clear
6:53 AM 24.1 °F 16.0 °F 14.0 °F 65% 30.44 in 10.0 mi NW 6.9 mph - N/A   Clear
8:53 AM 28.0 °F 19.3 °F 17.1 °F 63% 30.45 in 10.0 mi North 9.2 mph - N/A   Clear
9:53 AM 32.0 °F 26.4 °F 19.9 °F 61% 30.45 in 10.0 mi NNE 5.8 mph - N/A   Clear
10:43 AM 35.6 °F 29.2 °F 23.0 °F 60% 30.44 in 10.0 mi NE 8.1 mph - N/A   Mostly Cloudy
10:53 AM 35.1 °F 27.4 °F 23.0 °F 61% 30.46 in 10.0 mi NE 10.4 mph - N/A   Mostly Cloudy
11:53 AM 35.1 °F 28.6 °F 23.0 °F 61% 30.44 in 10.0 mi ENE 8.1 mph - N/A   Scattered Clouds
12:53 PM 36.0 °F 31.1 °F 23.0 °F 59% 30.41 in 10.0 mi Variable 5.8 mph - N/A   Scattered Clouds
1:53 PM 36.0 °F 29.0 °F 24.1 °F 62% 30.39 in 10.0 mi East 9.2 mph - N/A   Scattered Clouds
2:53 PM 35.1 °F 31.0 °F 24.1 °F 64% 30.39 in 10.0 mi ENE 4.6 mph - N/A   Scattered Clouds
3:53 PM 34.0 °F 28.8 °F 24.1 °F 67% 30.39 in 10.0 mi East 5.8 mph - N/A   Scattered Clouds
4:53 PM 34.0 °F 29.8 °F 25.0 °F 70% 30.37 in 10.0 mi SE 4.6 mph - N/A   Scattered Clouds
5:53 PM 33.1 °F 30.0 °F 25.0 °F 72% 30.36 in 10.0 mi SSE 3.5 mph - N/A   Scattered Clouds
6:53 PM 30.9 °F 27.5 °F 24.1 °F 76% 30.33 in 10.0 mi SE 3.5 mph - N/A   Clear
7:53 PM 32.0 °F 28.7 °F 25.0 °F 75% 30.33 in 10.0 mi SE 3.5 mph - N/A   Clear
8:53 PM 32.0 °F 26.4 °F 26.1 °F 79% 30.30 in 10.0 mi SSE 5.8 mph - N/A   Clear
9:53 PM 32.0 °F 28.7 °F 27.0 °F 82% 30.26 in 10.0 mi South 3.5 mph - N/A   Clear
10:53 PM 30.0 °F - 26.1 °F 85% 30.24 in 10.0 mi Calm Calm - N/A   Clear
11:53 PM 30.9 °F - 26.1 °F 82% 30.23 in 10.0 mi Calm Calm - N/A   Clear